Content
SEND FEEDBACK

Daily
Averages
Monthly
Summary
Canada

MONTREAL, QUEBEC


Home > North America > Canada > Quebec
Elevation: 35 meters     Latitude: 45 28N     Longitude: 073 45W

WEATHER
 
SELECT A DAY
Number of Records: 202,545;   Date Range: 1/1/95 - 11/24/14
 
SHARE

PRINT THIS DATA

[ ← Previous Day ]
WEATHER ALMANAC - 10 APRIL, 2013
[ Next Day → ]
[ °F ]   °C
Weather ElementAverageHighLow
Temperature6.9 °C9 °C (1:00 pm)4 °C (11:00 pm)
Dewpoint1.4 °C5 °C (3:00 am)-4 °C (11:00 pm)
Humidity68.8 %100 % (3:00 am)40 % (2:00 pm)
Barometer1015.2 hPa1017.3 hPa (10:00 am)1013.5 hPa (6:00 pm)
Wind Speed11.1 km/h20.4 km/h (5:00 pm)
Weather ElementAverage
Visibility23.8 km
Wind DirectionS (179.3 °)

Weather ElementTotal
Precipitation---
Heating Degree Days11.8 (Base 18.3)
Averaged from 27 records on 10 April, 2013
WEATHER CONDITIONS BREAKOUT
WIND DIRECTION BREAKOUT
WEATHER BY HOUR - 10 APRIL, 2013
[ °F ]   °C
Local TimeTemperatureDewpointHumidityBarometerVisibilityWind DirectionWind SpeedGust SpeedPrecipitationEventsConditions
1:00 AM7 °C4 °C81 %1014.6 hPa24.1 kmSW (220°)7.4 km/hRainLight Rain Showers
2:00 AM5.6 °C4.4 °C90 %1014.6 hPa24.1 kmSSW (200°)9.3 km/hRainLight Rain Showers
2:00 AM6 °C4 °C87 %1014.6 hPa24.1 kmSSW (210°)11.1 km/hRainLight Rain Showers
3:00 AM5 °C5 °C100 %1014.2 hPa24.1 kmSSW (210°)9.3 km/hOvercast
4:00 AM5 °C5 °C100 %1014.6 hPa24.1 kmCalmOvercast
5:00 AM5 °C4 °C93 %1014.9 hPa16.1 kmSW (220°)5.6 km/hOvercast
6:00 AM5 °C5 °C100 %1015.6 hPa24.1 kmNNW (330°)7.4 km/hOvercast
7:00 AM5 °C4 °C93 %1015.9 hPa24.1 kmNNW (330°)9.3 km/hOvercast
8:00 AM6.1 °C1.7 °C66 %1016.3 hPa24.1 kmNNE (20°)16.7 km/hPartly Cloudy
8:00 AM6 °C2 °C76 %1016.3 hPa24.1 kmNNE (20°)14.8 km/hOvercast
9:00 AM7 °C1 °C66 %1016.9 hPa24.1 kmNorth (10°)16.7 km/hOvercast
10:00 AM7 °C0 °C61 %1017.3 hPa24.1 kmNE (40°)13 km/hMostly Cloudy
11:00 AM7 °C-1 °C57 %1017.3 hPa24.1 kmNE (40°)7.4 km/hMostly Cloudy
12:00 PM8 °C-2 °C50 %1016.3 hPa24.1 kmEast (90°)5.6 km/hOvercast
1:00 PM9 °C-1 °C50 %1016.6 hPa24.1 kmSSW (200°)5.6 km/hMostly Cloudy
2:00 PM8.9 °C-0.6 °C40 %1016.3 hPa24.1 kmSouth (180°)14.8 km/hOvercast
2:00 PM9 °C0 °C54 %1016.3 hPa24.1 kmSouth (190°)14.8 km/hOvercast
3:00 PM9 °C-1 °C50 %1015.6 hPa24.1 kmSouth (190°)14.8 km/hOvercast
4:00 PM9 °C1 °C58 %1014.9 hPa24.1 kmSSW (210°)14.8 km/hOvercast
5:00 PM9 °C1 °C58 %1014.9 hPa24.1 kmSSW (210°)20.4 km/hOvercast
6:00 PM8 °C2 °C66 %1013.5 hPa24.1 kmSSW (210°)16.7 km/hOvercast
7:00 PM8 °C2 °C66 %1014.2 hPa24.1 kmSW (220°)14.8 km/hOvercast
8:00 PM7.8 °C1.7 °C55 %1014.2 hPa24.1 kmSW (220°)9.3 km/hMostly Cloudy
8:00 PM8 °C2 °C66 %1014.2 hPa24.1 kmSW (220°)9.3 km/hMostly Cloudy
9:00 PM7 °C0 °C61 %1014.9 hPa24.1 kmWest (270°)11.1 km/hScattered Clouds
10:00 PM6 °C-2 °C57 %1014.6 hPa24.1 kmWNW (290°)9.3 km/hPartly Cloudy
11:00 PM4 °C-4 °C56 %1014.9 hPa24.1 kmWNW (290°)11.1 km/hClear
Hourly data recorded from CYUL, located 0 kilometers away from Montreal, Quebec







STORIES FROM OUR PARTNERS